• In Deutschland
  • Länderverzeichnis
  • Für 7 Tage
  • Wassertemperatur
  • Satellitenkarten
  • Wetterkarte
  • Widgets
  • user-avatar
    Anmelden

    Stündliche Wetter Quibdó

    Heute, 17 Januar, Mittwoch

    Zeit Temperatur Niederschläge Wind Luftdruck Luftfeuchtigkeit
    00:00 +22°C° 0 mm 0 m/S 752 mmHg 94%
    01:00 +21°C° 0 mm 0 m/S 752 mmHg 94%
    02:00 +21°C° 0 mm 0 m/S 752 mmHg 93%
    03:00 +21°C° 0 mm 0 m/S 751 mmHg 93%
    04:00 +21°C° 0 mm 0 m/S 751 mmHg 92%
    05:00 +21°C° 0 mm 0 m/S 751 mmHg 91%
    06:00 +21°C° 0 mm 0 m/S 752 mmHg 91%
    07:00 +21°C° 0 mm 0 m/S 752 mmHg 90%
    08:00 +24°C° 0 mm 0 m/S 752 mmHg 81%
    09:00 +28°C° 0 mm 1 m/S 752 mmHg 72%
    10:00 +31°C° 0 mm 1 m/S 752 mmHg 62%
    11:00 +31°C° 0,4 mm 1 m/S 752 mmHg 65%
    12:00 +31°C° 0,4 mm 1 m/S 751 mmHg 67%
    13:00 +32°C° 0,4 mm 1 m/S 751 mmHg 69%
    14:00 +31°C° 0,8 mm 1 m/S 750 mmHg 73%
    15:00 +30°C° 0,8 mm 1 m/S 750 mmHg 76%
    16:00 +29°C° 0,8 mm 1 m/S 749 mmHg 80%
    17:00 +28°C° 0,9 mm 1 m/S 750 mmHg 86%
    18:00 +26°C° 0,9 mm 1 m/S 750 mmHg 91%
    19:00 +25°C° 0,9 mm 1 m/S 751 mmHg 96%
    20:00 +23°C° 0,7 mm 0 m/S 751 mmHg 96%
    21:00 +22°C° 0,7 mm 0 m/S 752 mmHg 96%
    22:00 +22°C° 0,7 mm 0 m/S 752 mmHg 96%
    23:00 +22°C° 0,2 mm 0 m/S 752 mmHg 96%

    Morgen, 18 Januar, Donnerstag

    Zeit Temperatur Niederschläge Wind Luftdruck Luftfeuchtigkeit
    00:00 +22°C° 0,2 mm 0 m/S 752 mmHg 96%
    01:00 +22°C° 0,2 mm 0 m/S 752 mmHg 95%
    02:00 +22°C° 0,2 mm 0 m/S 752 mmHg 95%
    03:00 +22°C° 0,2 mm 0 m/S 751 mmHg 95%
    04:00 +22°C° 0,2 mm 0 m/S 751 mmHg 95%
    05:00 +22°C° 0,3 mm 0 m/S 751 mmHg 95%
    06:00 +22°C° 0,3 mm 0 m/S 752 mmHg 94%
    07:00 +22°C° 0,3 mm 0 m/S 752 mmHg 94%
    08:00 +23°C° 0,2 mm 0 m/S 752 mmHg 89%
    09:00 +24°C° 0,2 mm 0 m/S 753 mmHg 84%
    10:00 +26°C° 0,2 mm 0 m/S 753 mmHg 79%
    11:00 +30°C° 0,1 mm 1 m/S 752 mmHg 71%
    12:00 +31°C° 0,1 mm 1 m/S 751 mmHg 63%
    13:00 +33°C° 0,1 mm 1 m/S 751 mmHg 56%
    14:00 +32°C° 0,4 mm 1 m/S 750 mmHg 61%
    15:00 +31°C° 0,4 mm 1 m/S 749 mmHg 67%
    16:00 +30°C° 0,4 mm 1 m/S 749 mmHg 72%
    17:00 +29°C° 0,6 mm 1 m/S 749 mmHg 79%
    18:00 +27°C° 0,6 mm 1 m/S 750 mmHg 87%
    19:00 +25°C° 0,6 mm 1 m/S 750 mmHg 94%
    20:00 +23°C° 0,4 mm 0 m/S 751 mmHg 94%
    21:00 +23°C° 0,4 mm 0 m/S 751 mmHg 94%
    22:00 +22°C° 0,4 mm 0 m/S 752 mmHg 94%
    23:00 +22°C° 0,4 mm 0 m/S 752 mmHg 94%

    übermorgen, 19 Januar, Freitag

    Zeit Temperatur Niederschläge Wind Luftdruck Luftfeuchtigkeit
    00:00 +22°C° 0,4 mm 0 m/S 752 mmHg 94%
    01:00 +22°C° 0,4 mm 0 m/S 752 mmHg 94%
    02:00 +22°C° 0,5 mm 0 m/S 751 mmHg 94%
    03:00 +22°C° 0,5 mm 0 m/S 751 mmHg 94%
    04:00 +22°C° 0,5 mm 0 m/S 751 mmHg 94%
    05:00 +22°C° 0,1 mm 0 m/S 751 mmHg 94%
    06:00 +22°C° 0,1 mm 0 m/S 751 mmHg 93%
    07:00 +22°C° 0,1 mm 0 m/S 752 mmHg 93%
    08:00 +24°C° 0,1 mm 0 m/S 752 mmHg 84%
    09:00 +28°C° 0,1 mm 1 m/S 752 mmHg 75%
    10:00 +30°C° 0,1 mm 1 m/S 752 mmHg 66%
    11:00 +31°C° 0,3 mm 1 m/S 751 mmHg 65%
    12:00 +31°C° 0,3 mm 1 m/S 751 mmHg 65%
    13:00 +32°C° 0,3 mm 1 m/S 750 mmHg 64%
    14:00 +31°C° 0,9 mm 1 m/S 749 mmHg 72%
    15:00 +30°C° 0,9 mm 1 m/S 749 mmHg 79%
    16:00 +29°C° 0,9 mm 1 m/S 748 mmHg 86%
    17:00 +28°C° 1 mm 1 m/S 748 mmHg 89%
    18:00 +26°C° 1 mm 1 m/S 749 mmHg 93%
    19:00 +25°C° 1 mm 1 m/S 750 mmHg 96%
    20:00 +25°C° 0,5 mm 1 m/S 750 mmHg 96%
    21:00 +23°C° 0,5 mm 0 m/S 751 mmHg 96%
    22:00 +23°C° 0,5 mm 0 m/S 751 mmHg 96%
    23:00 +22°C° 0,3 mm 0 m/S 751 mmHg 96%

    20 Januar, Samstag

    Zeit Temperatur Niederschläge Wind Luftdruck Luftfeuchtigkeit
    00:00 +22°C° 0,3 mm 0 m/S 751 mmHg 96%
    01:00 +22°C° 0,3 mm 0 m/S 751 mmHg 96%
    02:00 +22°C° 0,2 mm 0 m/S 750 mmHg 96%
    03:00 +22°C° 0,2 mm 0 m/S 750 mmHg 95%
    04:00 +22°C° 0,2 mm 0 m/S 750 mmHg 95%
    05:00 +22°C° 0,1 mm 0 m/S 750 mmHg 95%
    06:00 +22°C° 0,1 mm 0 m/S 751 mmHg 94%
    07:00 +22°C° 0,1 mm 0 m/S 751 mmHg 94%
    08:00 +24°C° 0 mm 0 m/S 751 mmHg 85%
    09:00 +28°C° 0 mm 1 m/S 751 mmHg 76%
    10:00 +30°C° 0 mm 1 m/S 751 mmHg 68%
    11:00 +31°C° 0 mm 1 m/S 751 mmHg 64%
    12:00 +32°C° 0 mm 1 m/S 750 mmHg 60%
    13:00 +33°C° 0 mm 1 m/S 749 mmHg 57%
    14:00 +32°C° 0,8 mm 1 m/S 748 mmHg 65%
    15:00 +31°C° 0,8 mm 1 m/S 748 mmHg 74%
    16:00 +30°C° 0,8 mm 1 m/S 747 mmHg 83%
    17:00 +28°C° 0,8 mm 1 m/S 747 mmHg 87%
    18:00 +27°C° 0,8 mm 1 m/S 748 mmHg 91%
    19:00 +26°C° 0,8 mm 1 m/S 749 mmHg 96%
    20:00 +25°C° 0,7 mm 1 m/S 749 mmHg 96%
    21:00 +23°C° 0,7 mm 0 m/S 750 mmHg 96%
    22:00 +23°C° 0,7 mm 0 m/S 751 mmHg 96%
    23:00 +23°C° 0,5 mm 0 m/S 750 mmHg 96%

    21 Januar, Sonntag

    Zeit Temperatur Niederschläge Wind Luftdruck Luftfeuchtigkeit
    00:00 +23°C° 0,5 mm 0 m/S 750 mmHg 96%
    01:00 +23°C° 0,5 mm 0 m/S 750 mmHg 96%
    02:00 +22°C° 0,5 mm 0 m/S 749 mmHg 96%
    03:00 +22°C° 0,5 mm 0 m/S 749 mmHg 95%
    04:00 +22°C° 0,5 mm 0 m/S 749 mmHg 95%
    05:00 +22°C° 0,1 mm 0 m/S 749 mmHg 94%
    06:00 +22°C° 0,1 mm 0 m/S 750 mmHg 94%
    07:00 +22°C° 0,1 mm 0 m/S 750 mmHg 93%
    08:00 +24°C° 0 mm 0 m/S 750 mmHg 85%
    09:00 +28°C° 0 mm 1 m/S 750 mmHg 77%
    10:00 +31°C° 0 mm 1 m/S 750 mmHg 70%
    11:00 +31°C° 0 mm 1 m/S 749 mmHg 67%
    12:00 +32°C° 0 mm 1 m/S 749 mmHg 64%
    13:00 +33°C° 0 mm 1 m/S 748 mmHg 61%
    14:00 +32°C° 0,8 mm 1 m/S 747 mmHg 68%
    15:00 +31°C° 0,8 mm 1 m/S 746 mmHg 76%
    16:00 +30°C° 0,8 mm 1 m/S 746 mmHg 84%
    17:00 +28°C° 0,8 mm 1 m/S 746 mmHg 88%
    18:00 +27°C° 0,8 mm 1 m/S 747 mmHg 92%
    19:00 +26°C° 0,8 mm 1 m/S 748 mmHg 96%
    20:00 +26°C° 0,8 mm 1 m/S 748 mmHg 95%
    21:00 +23°C° 0,8 mm 0 m/S 749 mmHg 95%
    22:00 +23°C° 0,8 mm 0 m/S 750 mmHg 95%
    23:00 +23°C° 0,3 mm 0 m/S 749 mmHg 95%

    22 Januar, Montag

    Zeit Temperatur Niederschläge Wind Luftdruck Luftfeuchtigkeit
    00:00 +23°C° 0,3 mm 0 m/S 749 mmHg 94%
    01:00 +23°C° 0,3 mm 0 m/S 749 mmHg 94%
    02:00 +22°C° 0,5 mm 0 m/S 749 mmHg 94%
    03:00 +22°C° 0,5 mm 0 m/S 748 mmHg 94%
    04:00 +22°C° 0,5 mm 0 m/S 748 mmHg 93%
    05:00 +22°C° 0 mm 0 m/S 749 mmHg 92%
    06:00 +22°C° 0 mm 0 m/S 749 mmHg 92%
    07:00 +22°C° 0 mm 0 m/S 750 mmHg 91%
    08:00 +25°C° 0 mm 0 m/S 750 mmHg 83%
    09:00 +29°C° 0 mm 1 m/S 750 mmHg 75%
    10:00 +31°C° 0 mm 1 m/S 750 mmHg 67%
    11:00 +31°C° 0,2 mm 1 m/S 749 mmHg 67%
    12:00 +32°C° 0,2 mm 1 m/S 748 mmHg 66%
    13:00 +33°C° 0,2 mm 1 m/S 747 mmHg 66%
    14:00 +31°C° 0,9 mm 1 m/S 747 mmHg 72%
    15:00 +30°C° 0,9 mm 1 m/S 746 mmHg 79%
    16:00 +29°C° 0,9 mm 1 m/S 745 mmHg 86%
    17:00 +28°C° 0,9 mm 1 m/S 746 mmHg 89%
    18:00 +27°C° 0,9 mm 1 m/S 747 mmHg 92%
    19:00 +26°C° 0,9 mm 1 m/S 748 mmHg 96%
    20:00 +25°C° 1,3 mm 1 m/S 748 mmHg 96%
    21:00 +23°C° 1,3 mm 0 m/S 749 mmHg 96%
    22:00 +23°C° 1,3 mm 0 m/S 749 mmHg 96%
    23:00 +23°C° 0,5 mm 0 m/S 749 mmHg 95%
    Mehr zeigen